COSMOS 2491 DEB, 47111

Orbit data source: Space-Track

COSMOS 2491 DEB, 47111 is space debris in LEO originally from a launch on Wed, 25 Dec 2013 UTC launched from the Plesetsk Missile And Space Complex (PKMTR). Debris objects in space refer to the collection of defunct objects orbiting the Earth. Examples of debris include non-operational satellites, rocket bodies, and fragments generated from explosions, collisions, or faulty payload assembly.

Loading next visibility...
Identifier
47111, 2013-076AG
Orbit
LEO
Country
Flag of CISCIS
Related business
Manufacturer
TsNIIKhM
Mission
Spacecraft
Bus & Motor
Unknown
Mass
Unknown
Launch date (UTC)
2013-12-25 (12 years ago)
Launch vehicle
Unknown
Launch site
Plesetsk Missile And Space Complex (PKMTR)
Object type
Payload
Rocket body
Debris
Shape & HBR
Unknown shape, 0.1 m
Radar Cross Section
Small (<0.1 m²)

Expand to show TLE details & history
Last TLE update: 2 weeks ago

TLE from 2 weeks ago
0 COSMOS 2491 DEB
1 47111U 13076AG  26021.86380440  .00004208  00000-0  24498-1 0  9997
2 47111  82.4614 234.7353 0066713 256.7211 102.6431 12.58449639120848
Epoch: 2026-01-21T20:43Z
TLE epoch observation values (Epoch: 2026-01-21T20:43:52.700Z)
Latitude
-0.00004°
Longitude
162.5405°
Altitude
1,443.804 km
Speed
7.135 km/s
True Right ascension
15h 38m 56s
True Declination
0° 00' 00"
Sunlit
Object was in daylight at epoch
Visualization orbit readout
Latitude
Unknown
Longitude
Unknown
Altitude
Unknown
Speed
Unknown
Apparent Right ascension
Unknown
Apparent Declination
Unknown
Sunlit
N/A
Visualization observer readout
Local Sidereal Time
16:30:47
Azimuth
Unknown
Elevation
Unknown
Doppler factor
Unknown
Orbital elements
Apogee altitude
1,478.749 km
Perigee altitude
1,374.612 km
Semi-major axis
7,804.818 km
Eccentricity
0.00667
Inclination
82.4614°
RAAN
234.7353°
Arg. of periapsis
256.7211°
True anomaly
103.38766°
Mean anomaly
102.6431°
Eccentric anomaly
103.01552°
Mean motion
3.14774 °/min
Orbital period
114.37 mins
BSTAR
0.024498
Loading maneuver chart data...
Computing Atmospheric mass density...
Loading historical data...
Loading historical data...
Loading historical data...
Loading historical data...
Loading historical data...
Loading historical data...
Loading historical data...

Documentation

Showing up to 5 results
|